Location: Arpaise
(41.0333°N, 14.7333°E)
Time: 08:06:00
(UTC+00:00)

Cosmos 2218 Rocket - Pass Details

Date: 05 July 2020
Orbit: 955 x 1007 km, 82.9° (Epoch: 05 August)

Event Time Altitude Azimuth Distance (km) Brightness Sun altitude
Exits shadow 22:50:54 60° 207° (SSW) 1,133 4.0 -26.2°
Maximum altitude 22:52:07 79° 278° (W) 1,019 4.0 -26.2°
Drops below altitude 10° 22:58:28 10° 5° (N) 2,756 7.4 -26.3°
Sets 23:01:00 0° 7° (N) 3,701 8.3 -26.3°
